Location: Boiro
(42.6475°N, 8.8834°W)
Time: 07:02:13
(UTC+01:00)

METEOR 2-15 DEB - Visible Passes

Search period start: 01 December 2022 00:00
Search period end: 11 December 2022 00:00
Orbit: 886 x 914 km, 82.5° (Epoch: 26 November)

Date Brightness Start Highest point End Pass type
(mag) Time Alt. Az. Time Alt. Az. Time Alt. Az.
01 Dec ? 06:30:38 10° NE 06:32:22 11° ENE 06:34:05 10° E visible
01 Dec ? 08:11:19 10° N 08:17:12 78° E 08:23:05 10° SSE visible
02 Dec ? 06:32:30 10° NE 06:35:25 14° ENE 06:38:20 10° E visible
02 Dec ? 08:14:11 10° N 08:20:04 88° W 08:25:58 10° S visible
02 Dec ? 21:32:17 10° SSW 21:32:18 10° SSW 21:32:18 10° SSW visible
03 Dec ? 06:34:47 10° NNE 06:38:27 17° ENE 06:42:07 10° ESE visible
03 Dec ? 08:17:04 10° NNW 08:22:55 73° W 08:28:47 10° S visible
03 Dec ? 19:52:41 10° SE 19:53:15 12° SE 19:53:15 12° SE visible
03 Dec ? 21:35:19 10° SSW 21:36:24 16° SW 21:36:24 16° SW visible
04 Dec ? 06:37:13 10° NNE 06:41:27 20° ENE 06:45:42 10° ESE visible
04 Dec ? 19:55:06 10° SSE 19:57:22 21° SE 19:57:22 21° SE visible
04 Dec ? 21:38:26 10° SW 21:40:32 21° SW 21:40:32 21° SW visible
05 Dec ? 06:39:45 10° NNE 06:44:27 24° ENE 06:49:08 10° ESE visible
05 Dec ? 19:57:34 10° SSE 20:01:32 33° ESE 20:01:32 33° ESE visible
05 Dec ? 21:41:38 10° SW 21:44:41 25° WSW 21:44:41 25° WSW visible
06 Dec ? 06:42:22 10° NNE 06:47:24 29° ENE 06:52:27 10° SE visible
06 Dec ? 20:00:08 10° SSE 20:05:36 45° E 20:05:43 45° E visible
06 Dec ? 21:44:54 10° SW 21:48:52 25° W 21:48:52 25° W visible
07 Dec ? 06:45:01 10° N 06:50:21 34° ENE 06:55:40 10° SE visible
07 Dec ? 20:02:46 10° S 20:08:24 55° E 20:09:53 43° NE visible
07 Dec ? 21:48:15 10° WSW 21:52:36 22° WNW 21:53:02 21° WNW visible
08 Dec ? 06:47:42 10° N 06:53:16 41° ENE 06:58:48 10° SE visible
08 Dec ? 20:05:28 10° S 20:11:11 67° E 20:14:02 31° NNE visible
08 Dec ? 21:51:45 10° WSW 21:55:35 18° WNW 21:57:10 16° NW visible
09 Dec ? 06:50:26 10° N 06:56:09 50° ENE 07:01:52 10° SSE visible
09 Dec ? 18:30:27 10° E 18:31:13 10° ENE 18:31:59 10° ENE visible
09 Dec ? 20:08:13 10° S 20:14:00 81° E 20:18:07 20° NNE visible
09 Dec ? 21:55:24 10° W 21:58:35 15° WNW 22:01:16 11° NW visible
10 Dec ? 06:53:12 10° N 06:59:02 60° ENE 07:04:52 10° SSE visible
10 Dec ? 18:31:22 10° ESE 18:33:52 13° E 18:36:24 10° NE visible
10 Dec ? 20:11:01 10° S 20:16:49 84° W 20:22:08 13° N visible
10 Dec ? 21:59:22 10° W 22:01:36 12° WNW 22:03:51 10° NW visible
